JBU1161 KBOS-TJSJ

Flight info

Callsign JBU1161
Flight time N/A
Altitude 34000
Route SSOXS7 SSOXS Q167 SPDEY Y490 BEHHR/M078F340 Y490 ROLLE DCT ATUGI L454 LUCTI/N0460F340 L454 MNDEZ DCT FIPEK Y355 PLING RTE7 SAALR
Aircraft A321/M-SDE3FGHIRWY/LB1

Departure

Time 2026-05-06 17:22
Airport Boston Logan International Airport (KBOS)

Arrival

Time N/A
Airport Luis Munoz Marin International Airport (TJSJ)
Time Latitude Longitude Altitude Speed Heading
2026-05-06 16:49 42.36814 -71.01761 25 ft 0 kts 241°
2026-05-06 17:03 42.36819 -71.01749 28 ft 3 kts 241°
2026-05-06 17:03 42.36829 -71.01727 30 ft 3 kts 246°
2026-05-06 17:03 42.36834 -71.01701 29 ft 3 kts 276°
2026-05-06 17:04 42.36829 -71.01677 30 ft 2 kts 289°
2026-05-06 17:04 42.36829 -71.01675 30 ft 0 kts 289°
2026-05-06 17:13 42.36829 -71.01677 25 ft 1 kts 289°
2026-05-06 17:13 42.36850 -71.01696 29 ft 5 kts 346°
2026-05-06 17:13 42.36891 -71.01670 27 ft 8 kts 34°
2026-05-06 17:14 42.36943 -71.01623 25 ft 9 kts 33°
2026-05-06 17:14 42.36950 -71.01617 25 ft 0 kts 33°
2026-05-06 17:15 42.36955 -71.01612 27 ft 3 kts 33°
2026-05-06 17:15 42.36985 -71.01575 25 ft 7 kts 65°
2026-05-06 17:16 42.36969 -71.01517 27 ft 7 kts 128°
2026-05-06 17:16 42.36934 -71.01463 25 ft 8 kts 135°
2026-05-06 17:16 42.36890 -71.01404 27 ft 9 kts 135°
2026-05-06 17:16 42.36847 -71.01347 25 ft 1 kts 135°
2026-05-06 17:17 42.36842 -71.01339 25 ft 3 kts 134°
2026-05-06 17:17 42.36836 -71.01297 25 ft 8 kts 77°
2026-05-06 17:17 42.36887 -71.01222 27 ft 13 kts 40°
2026-05-06 17:17 42.36960 -71.01138 29 ft 14 kts 40°
2026-05-06 17:18 42.37054 -71.01067 29 ft 16 kts 26°
2026-05-06 17:18 42.37155 -71.01001 28 ft 16 kts 26°
2026-05-06 17:18 42.37262 -71.00932 27 ft 17 kts 26°
2026-05-06 17:18 42.37374 -71.00873 28 ft 18 kts 20°
2026-05-06 17:19 42.37492 -71.00815 27 ft 18 kts 20°
2026-05-06 17:19 42.37613 -71.00756 25 ft 18 kts 19°
2026-05-06 17:19 42.37733 -71.00698 28 ft 19 kts 19°
2026-05-06 17:19 42.37830 -71.00639 27 ft 12 kts 50°
2026-05-06 17:20 42.37821 -71.00530 26 ft 12 kts 109°
2026-05-06 17:20 42.37795 -71.00478 27 ft 5 kts 161°
2026-05-06 17:20 42.37764 -71.00488 27 ft 0 kts 200°
2026-05-06 17:21 42.37762 -71.00488 27 ft 2 kts 200°
2026-05-06 17:21 42.37591 -71.00571 29 ft 61 kts 199°
2026-05-06 17:21 42.36985 -71.00863 29 ft 122 kts 199°
2026-05-06 17:22 42.36057 -71.01317 292 ft 149 kts 199°
2026-05-06 17:22 42.35093 -71.01791 1000 ft 147 kts 193°
2026-05-06 17:22 42.34084 -71.01641 1698 ft 155 kts 158°
2026-05-06 17:22 42.33269 -71.00571 2078 ft 175 kts 138°
2026-05-06 17:23 42.32463 -70.99201 2246 ft 196 kts 137°
2026-05-06 17:23 42.31594 -70.97637 2426 ft 221 kts 128°
2026-05-06 17:23 42.31186 -70.95527 2772 ft 248 kts 95°
2026-05-06 17:23 42.31457 -70.93095 2920 ft 274 kts 83°
2026-05-06 17:24 42.31844 -70.90468 3237 ft 293 kts 82°
2026-05-06 17:24 42.32248 -70.87735 3800 ft 300 kts 83°
2026-05-06 17:24 42.32656 -70.84953 4454 ft 304 kts 83°
2026-05-06 17:24 42.32958 -70.82130 5098 ft 303 kts 94°
2026-05-06 17:25 42.32808 -70.79320 5745 ft 298 kts 109°
2026-05-06 17:25 42.32191 -70.76685 6383 ft 291 kts 123°
2026-05-06 17:25 42.31326 -70.74206 7004 ft 293 kts 124°
2026-05-06 17:25 42.30468 -70.71734 7650 ft 295 kts 125°
2026-05-06 17:26 42.29384 -70.69432 8244 ft 287 kts 140°
2026-05-06 17:26 42.27955 -70.67619 8869 ft 278 kts 154°
2026-05-06 17:26 42.26302 -70.66341 9502 ft 272 kts 163°
2026-05-06 17:26 42.24591 -70.65216 10093 ft 275 kts 163°
2026-05-06 17:27 42.22826 -70.64060 10347 ft 292 kts 163°
2026-05-06 17:27 42.20934 -70.62830 10478 ft 312 kts 162°
2026-05-06 17:27 42.18921 -70.61516 10585 ft 331 kts 162°
2026-05-06 17:27 42.16795 -70.60118 10745 ft 348 kts 161°
2026-05-06 17:28 42.14598 -70.58657 11163 ft 355 kts 160°
2026-05-06 17:28 42.12371 -70.57170 11699 ft 359 kts 160°
2026-05-06 17:28 42.10883 -70.56174 12055 ft 362 kts 160°
2026-05-06 17:28 42.08615 -70.54656 12590 ft 366 kts 160°
2026-05-06 17:29 42.06317 -70.53125 13113 ft 370 kts 160°
2026-05-06 17:29 42.03996 -70.51586 13644 ft 375 kts 160°
2026-05-06 17:29 42.01643 -70.50033 14126 ft 378 kts 160°
2026-05-06 17:29 41.99272 -70.48469 14638 ft 381 kts 160°
2026-05-06 17:30 41.96883 -70.46894 15156 ft 384 kts 160°
2026-05-06 17:30 41.94475 -70.45309 15698 ft 386 kts 160°
2026-05-06 17:30 41.92053 -70.43716 16218 ft 389 kts 160°
2026-05-06 17:30 41.89614 -70.42113 16737 ft 392 kts 160°
2026-05-06 17:31 41.87158 -70.40501 17263 ft 394 kts 160°
2026-05-06 17:31 41.84684 -70.38880 17772 ft 397 kts 160°
2026-05-06 17:31 41.82196 -70.37251 18257 ft 400 kts 160°
2026-05-06 17:31 41.79686 -70.35609 18692 ft 402 kts 160°
2026-05-06 17:32 41.77166 -70.33961 19108 ft 405 kts 159°
2026-05-06 17:32 41.74626 -70.32303 19521 ft 407 kts 159°
2026-05-06 17:32 41.72073 -70.30638 19926 ft 409 kts 159°